Theta_e
331 331 332 334 336 335 334 335 334 330 327 326 326 327 327 326 326 326 325 324 325 327 328 328 328 328 330 332 333 333 333 333 331 330 329 328 326 324 325 327 328 329 330 329 329 328 329 329 329 328 327 326 326 327 327 327 326 322 318 316 316 316 314 312 313 312 310 308 307 308 311 311 311 313 313 311 313 317 318 317 317 318 318 317 317
333 333 334 336 335 334 334 334 334 329 326 326 326 329 330 328 326 326 325 325 328 330 329 328 328 329 329 331 333 332 333 333 332 331 329 328 326 325 326 328 329 329 330 329 328 329 329 328 329 329 328 327 326 326 326 326 326 324 321 317 315 315 314 313 314 313 311 311 310 308 309 310 312 313 312 309 310 314 316 317 317 317 317 317 317
335 334 335 335 333 333 334 334 334 332 328 327 327 329 331 330 328 328 327 328 331 330 329 329 329 329 328 331 331 330 331 333 333 331 329 328 327 326 326 328 329 330 331 329 329 331 330 328 328 328 328 327 327 326 326 326 326 326 325 322 318 316 314 313 313 313 314 313 310 308 307 308 310 310 309 309 310 310 313 315 315 315 315 317 317
336 336 336 336 334 333 333 333 334 334 331 328 328 330 331 331 330 330 330 330 332 330 329 329 328 328 328 330 330 330 331 332 332 330 330 330 327 326 327 327 328 328 329 328 328 331 331 330 329 329 328 327 327 326 325 325 326 326 327 326 324 322 318 315 313 313 314 312 310 311 310 309 309 310 308 308 308 307 308 311 311 311 314 316 317
335 336 337 336 334 332 333 332 331 332 332 330 329 331 331 331 331 331 331 331 332 331 329 328 327 327 327 328 328 330 331 332 332 331 331 330 327 326 325 326 325 326 326 325 326 329 331 331 330 330 329 329 328 327 325 325 325 326 327 327 327 326 324 320 316 314 314 312 312 315 315 313 311 310 308 307 306 305 307 310 309 309 313 316 316
335 337 336 335 334 332 332 333 332 332 332 331 332 332 332 332 332 331 331 332 332 331 329 328 328 328 327 327 328 329 330 331 331 331 331 331 329 327 326 325 325 324 324 324 325 326 328 330 331 331 330 330 329 327 326 327 326 326 326 327 328 327 326 324 320 316 315 314 315 316 315 315 314 310 309 309 306 305 307 309 310 310 311 314 315
336 337 335 333 333 333 333 334 335 333 330 332 334 333 333 333 332 331 331 332 331 329 328 328 328 328 328 328 328 328 329 329 329 330 331 331 331 328 328 327 325 324 324 325 324 325 326 328 329 330 330 330 330 329 327 327 328 327 326 327 328 328 327 325 321 319 318 317 317 316 315 317 316 313 312 308 305 307 306 306 310 313 311 311 314
336 336 335 333 332 333 334 335 335 333 331 333 334 333 333 334 332 331 330 331 330 328 327 328 328 328 328 329 329 329 329 329 328 329 329 330 331 330 328 328 327 326 325 326 326 325 325 326 327 328 329 330 330 330 329 329 329 327 327 327 327 328 328 326 322 319 319 318 319 318 317 318 319 317 314 309 306 308 308 306 307 310 311 312 312
335 335 333 333 333 332 333 334 334 333 332 333 334 333 332 332 331 331 330 330 330 328 327 328 327 327 328 328 327 327 327 328 328 328 328 328 329 329 327 327 328 327 326 326 327 327 326 326 326 327 328 329 330 331 331 330 330 329 328 327 326 326 328 328 325 321 318 317 318 318 317 318 319 319 318 314 310 309 311 310 306 306 309 311 309
333 333 333 333 333 332 332 332 332 330 331 332 332 330 331 331 331 331 331 330 329 328 327 327 327 326 327 327 326 325 325 325 325 325 325 325 326 327 327 326 326 328 328 328 329 328 329 328 327 327 327 328 329 330 331 331 331 331 331 330 328 326 326 327 327 324 320 318 319 318 317 318 319 319 320 318 314 312 314 313 310 307 306 306 306
333 333 333 333 333 332 331 330 329 329 330 329 328 329 330 331 330 330 329 328 329 328 326 326 326 326 326 325 325 326 327 325 325 324 323 323 323 324 325 324 324 326 328 328 329 329 329 329 329 328 328 327 327 328 330 331 331 331 331 332 331 329 327 326 327 327 323 320 322 323 320 318 318 317 318 320 317 315 316 315 313 310 304 303 304
332 332 331 332 332 333 332 330 329 329 329 328 328 329 330 331 329 329 328 326 326 325 325 326 326 326 326 325 326 328 328 327 326 324 322 321 321 322 323 323 324 326 327 326 327 327 327 327 328 328 328 329 328 327 328 329 330 331 331 331 331 331 330 329 328 328 327 322 321 325 325 322 320 319 318 319 319 318 317 316 314 312 306 303 303
329 329 329 330 331 331 331 330 330 330 329 329 329 329 329 329 328 328 327 326 324 324 326 326 326 327 328 328 328 329 328 328 326 323 321 320 320 321 322 322 325 327 328 327 328 328 328 328 327 328 328 329 329 327 326 327 328 329 330 330 330 331 330 330 330 330 330 326 321 322 326 325 323 322 320 320 319 319 318 317 316 315 311 305 303
329 328 328 329 330 329 329 330 330 330 329 329 329 328 328 328 327 326 326 325 324 325 326 326 328 328 328 328 329 328 327 327 326 324 321 320 321 321 322 322 323 327 328 328 326 327 326 327 327 327 327 328 328 327 327 328 328 328 328 329 329 330 330 330 331 330 331 330 325 322 323 326 325 324 323 321 320 320 319 318 317 316 315 311 306
329 329 329 329 329 328 328 329 329 330 329 329 330 329 329 329 327 327 326 325 325 326 327 327 328 327 327 329 328 327 328 326 325 324 321 319 320 320 320 320 321 323 325 324 323 323 323 324 324 325 325 325 326 328 329 328 329 329 328 328 329 329 329 329 330 331 331 332 330 326 322 324 325 324 323 322 321 321 320 319 319 318 317 315 312
327 328 328 327 326 326 327 328 329 330 329 329 330 329 329 328 328 327 327 325 326 326 327 327 327 327 327 327 325 327 331 328 324 324 321 319 319 320 321 321 320 320 321 321 321 321 321 322 322 323 324 324 324 325 326 325 326 328 329 329 329 329 329 328 328 330 330 331 332 330 327 325 324 324 323 322 321 321 320 320 320 320 320 318 316
323 324 325 326 326 326 326 327 328 328 328 328 328 328 327 327 327 328 327 326 327 326 326 325 326 326 325 326 326 328 331 327 323 323 323 322 319 319 321 321 319 318 319 319 321 322 322 322 322 323 324 324 324 323 323 323 323 324 326 328 328 329 329 328 327 328 329 329 330 331 331 329 328 327 326 324 322 321 320 321 321 321 321 320 319
319 321 323 324 323 324 325 326 327 327 327 327 327 327 327 326 326 327 327 327 327 326 325 323 324 324 324 325 326 327 328 325 323 323 323 322 318 316 316 315 315 315 316 317 319 320 321 322 323 324 324 324 324 324 323 323 322 322 323 325 326 327 328 328 328 328 328 329 329 329 330 330 330 330 329 328 326 323 321 320 320 320 320 321 320
319 320 322 324 323 322 323 325 326 326 326 326 325 326 326 326 326 326 326 326 326 326 325 323 323 323 323 325 326 325 325 324 324 325 324 323 319 314 311 312 314 315 315 316 317 318 318 320 322 323 324 324 323 323 322 320 320 320 322 324 325 326 326 326 326 327 328 328 328 328 329 329 330 331 330 330 329 328 325 322 320 320 320 320 321
319 319 322 324 323 320 320 324 325 324 324 325 325 325 326 325 326 325 326 326 327 327 325 324 324 323 323 326 326 325 324 324 324 324 326 329 324 315 310 312 314 313 312 312 312 314 315 316 318 320 321 322 323 323 322 320 319 319 321 323 325 326 327 326 326 327 328 328 329 328 328 328 329 329 330 330 330 329 328 325 324 322 321 322 322
319 319 320 321 320 318 319 322 323 323 323 324 325 325 325 325 326 326 327 327 327 327 326 325 325 325 324 323 321 321 321 322 321 319 321 324 323 317 312 311 312 311 310 309 308 308 310 311 313 314 316 316 318 320 321 322 323 323 323 323 325 328 328 327 327 328 329 329 329 329 328 327 327 328 329 330 330 329 328 327 327 326 324 324 324
318 318 319 319 318 318 319 321 321 321 322 323 323 323 323 324 325 326 327 327 327 327 327 326 326 325 324 321 316 316 315 314 312 312 312 313 314 313 310 309 312 312 310 309 307 307 306 308 310 310 311 312 312 313 314 316 319 321 322 325 326 327 328 327 328 328 329 329 329 329 329 328 328 328 328 329 329 329 329 329 328 328 327 327 326
317 318 318 317 317 318 319 320 321 321 321 321 320 321 323 323 323 324 325 325 326 326 326 325 324 323 320 318 315 314 312 310 308 308 308 308 311 311 308 308 310 311 311 309 307 307 306 306 307 307 308 309 309 310 310 311 312 314 317 320 322 323 324 325 325 325 325 326 327 327 328 328 328 329 329 329 329 329 329 329 329 329 330 329 329
318 317 317 317 317 318 319 319 320 320 320 320 320 321 322 320 319 319 320 323 323 324 323 322 320 318 315 313 312 311 310 309 308 307 307 306 308 309 307 308 309 309 310 309 307 307 306 305 305 305 305 306 307 307 308 309 309 310 312 315 317 318 319 320 322 322 322 323 324 326 326 325 326 328 329 329 330 330 330 330 331 330 330 330 329
317 316 316 316 316 318 319 319 319 318 318 318 318 319 319 317 316 315 315 317 318 318 318 316 314 313 311 309 309 308 308 308 306 305 305 303 304 306 306 307 307 307 308 308 306 306 306 305 304 304 304 304 305 306 306 307 308 308 310 311 311 312 313 314 316 316 316 319 322 324 326 326 325 326 326 326 327 327 327 328 327 327 327 327 328
314 313 312 312 311 314 317 316 316 315 315 315 315 316 316 315 313 310 310 311 312 311 311 310 309 308 307 306 305 304 304 305 304 303 303 304 305 305 305 305 305 304 305 306 306 305 306 305 304 304 303 303 304 305 306 306 307 307 308 309 308 308 309 310 310 311 311 313 317 321 324 325 325 325 325 325 325 325 325 325 325 326 326 326 326
312 311 311 308 307 309 310 309 308 308 308 308 308 310 311 309 306 304 305 306 306 307 306 305 303 302 302 301 301 300 301 302 303 304 305 305 306 305 305 307 307 305 305 305 306 305 305 305 304 303 303 303 303 304 305 306 306 306 307 307 307 307 308 308 308 309 309 310 312 315 318 321 324 325 325 325 324 324 324 324 324 324 325 324 324
312 312 310 308 307 307 307 305 303 302 302 303 304 305 305 304 303 303 303 303 303 304 303 301 301 300 300 299 299 299 301 303 304 305 305 306 307 307 306 307 309 310 310 309 307 305 305 305 304 303 302 301 302 303 304 304 305 306 306 306 306 307 307 307 307 308 308 308 309 310 311 314 317 320 323 324 324 323 322 322 321 321 321 321 321
312 311 310 309 309 308 308 306 303 302 303 304 304 303 304 304 304 303 303 302 302 303 303 302 301 301 302 301 301 302 303 305 306 306 306 306 306 307 307 306 307 310 313 312 309 306 305 304 303 301 300 299 299 301 302 303 303 304 306 306 306 306 307 307 307 307 307 308 308 308 309 309 310 312 315 318 319 320 317 315 315 315 315 315 315
312 311 310 310 310 310 309 308 306 305 304 303 303 303 304 304 304 303 302 302 302 303 303 303 303 302 303 303 303 304 305 306 306 306 305 305 305 306 307 307 306 307 309 310 309 306 304 304 302 300 298 297 297 297 299 301 302 303 304 305 305 305 306 307 307 307 307 308 308 308 308 308 308 309 309 310 311 312 312 310 310 310 311 311 311
311 311 311 311 311 311 310 310 310 308 307 304 303 304 306 305 305 304 303 302 302 303 303 303 303 302 302 303 304 305 306 305 305 305 305 305 305 305 306 307 305 305 305 306 307 305 304 303 300 297 296 296 296 296 297 298 299 300 302 303 304 304 305 306 307 307 307 307 307 307 307 307 307 307 308 308 308 309 309 310 310 310 310 310 310
310 310 310 311 311 311 311 311 311 311 310 308 305 306 307 307 307 306 305 304 304 303 303 303 304 303 302 303 304 304 304 304 304 304 305 305 305 305 306 305 305 304 304 304 305 304 303 300 297 295 296 296 296 296 296 296 297 298 299 300 301 303 303 304 305 307 307 306 306 306 306 306 306 306 306 306 306 307 308 308 309 310 310 311 311
309 309 309 310 310 311 310 311 312 311 311 310 308 307 308 308 309 309 307 306 306 305 305 304 304 304 303 303 304 303 303 303 303 303 304 305 305 305 305 305 304 304 304 303 302 302 301 298 295 295 296 296 295 295 295 296 296 297 297 298 298 299 300 301 302 304 305 305 305 305 305 305 305 305 305 305 305 305 306 307 307 308 309 311 311
310 308 308 310 310 310 309 310 312 312 311 311 309 308 309 309 310 309 309 308 308 308 307 307 305 305 305 305 305 304 304 304 303 303 304 304 305 305 305 305 305 304 304 303 300 298 297 296 295 296 296 295 295 295 295 295 296 296 297 297 297 297 297 298 299 300 300 301 302 302 303 304 304 304 304 304 304 304 304 304 305 306 306 308 309
311 310 309 310 311 311 309 309 311 311 311 311 310 309 310 310 310 310 310 309 309 309 309 308 308 306 306 306 305 305 305 305 305 305 304 304 304 305 305 305 305 304 303 301 299 296 295 295 296 296 295 295 295 295 295 295 296 296 296 296 296 296 296 296 296 296 297 297 298 298 299 299 300 301 302 303 303 303 303 303 304 304 304 305 306
312 311 311 311 312 313 311 309 309 309 310 311 310 310 310 310 310 310 310 310 310 310 309 309 309 308 308 307 306 306 305 305 305 305 305 305 304 304 305 305 305 304 302 300 299 298 297 297 296 295 295 295 296 296 296 295 296 296 296 295 295 295 295 295 295 295 295 296 296 296 296 296 297 297 298 299 300 301 301 302 302 303 303 303 303
313 312 312 312 312 313 313 311 310 309 309 310 310 311 311 311 310 310 310 310 311 310 310 310 310 309 309 309 308 307 306 306 306 306 306 305 305 304 304 304 304 303 302 300 300 300 299 298 296 296 296 296 296 296 297 296 296 296 296 296 295 295 295 295 295 295 295 295 295 295 295 295 295 296 296 296 297 298 299 299 300 301 302 302 302
314 313 313 313 313 314 314 313 312 312 311 311 311 311 312 312 311 311 311 310 311 311 311 310 310 310 310 310 309 308 308 307 307 306 306 306 305 305 304 304 304 302 301 301 301 302 301 298 297 297 297 297 297 297 297 297 296 296 296 296 296 296 295 295 295 295 295 295 295 295 295 295 295 295 295 295 296 297 297 298 298 299 300 301 301
315 314 314 314 314 314 314 314 314 314 314 314 313 313 313 312 312 312 312 311 311 311 312 312 311 311 311 311 310 309 309 308 308 307 307 306 306 306 305 304 303 302 301 301 302 302 301 299 297 297 297 297 297 297 297 297 297 297 296 296 296 296 295 295 295 295 295 295 295 295 294 295 295 295 294 295 295 296 296 296 297 297 298 299 300
316 315 315 315 315 315 316 315 314 315 315 314 314 315 316 315 314 314 313 314 314 314 314 313 313 312 312 312 311 311 310 309 309 308 307 307 307 306 305 304 303 302 301 301 302 302 300 299 298 298 298 298 298 297 297 297 297 297 296 296 296 296 296 295 295 295 295 295 295 294 294 294 294 294 294 294 295 296 295 295 295 296 297 297 298
316 316 315 315 315 315 315 315 314 314 314 314 315 317 317 317 316 315 315 315 315 315 316 315 315 315 314 314 314 313 312 310 309 309 308 307 307 306 305 305 304 302 302 302 303 302 300 299 299 298 299 299 298 297 297 297 296 296 296 296 296 295 296 296 295 295 295 294 294 294 294 293 293 293 293 293 295 295 294 294 295 296 296 297 297
316 316 316 315 315 315 314 313 312 313 313 314 316 316 317 316 316 317 317 316 316 315 316 316 316 316 316 316 315 315 315 312 310 309 308 307 307 307 306 305 304 303 302 303 303 302 301 300 299 299 299 298 298 297 296 296 296 296 296 296 296 295 295 296 295 295 295 294 293 293 293 293 293 293 293 293 294 294 293 295 296 297 297 297 297
317 316 315 314 314 315 314 312 312 313 315 315 316 317 317 316 316 315 315 315 316 316 317 317 317 317 317 317 316 316 316 314 311 309 307 307 307 306 305 304 303 302 302 303 303 302 300 300 299 299 298 298 297 297 296 296 296 296 296 295 295 295 294 294 294 295 294 293 292 293 293 293 292 292 292 293 293 293 294 296 298 298 298 298 299
317 316 315 314 314 315 314 312 313 315 316 316 317 317 315 313 311 309 308 310 311 314 316 317 317 318 318 317 317 317 316 315 313 310 308 307 307 306 305 304 302 302 302 302 302 302 301 300 299 299 298 297 297 296 296 296 296 295 295 295 294 294 293 293 293 293 293 292 292 292 292 293 292 292 293 294 294 295 296 297 298 299 300 300 301
316 316 315 315 315 314 314 314 315 316 317 317 317 314 311 310 308 306 306 310 312 314 315 315 316 316 317 317 317 316 315 315 313 311 308 307 306 304 304 303 301 301 301 301 302 301 300 300 299 299 298 297 297 296 296 296 295 295 295 294 294 293 292 292 292 292 292 292 291 291 292 292 292 292 293 294 294 295 295 296 297 298 301 303 302
316 316 316 315 315 316 315 316 316 316 317 316 315 312 310 310 308 305 306 310 312 313 313 314 314 314 314 314 314 314 313 312 311 309 307 306 305 304 302 302 301 301 301 301 301 300 300 299 299 298 297 296 296 296 295 295 294 294 293 293 293 292 292 292 291 292 292 291 291 291 291 292 292 292 293 293 293 294 294 295 296 296 300 303 303
317 317 317 317 317 317 317 316 316 316 316 315 312 311 311 310 308 306 306 308 308 309 311 311 312 312 312 312 311 311 310 309 308 307 305 305 305 303 302 301 300 300 300 300 300 299 298 298 298 297 297 296 296 295 295 294 293 293 292 292 292 292 292 292 291 292 292 291 291 291 291 292 292 292 292 292 292 292 293 294 294 295 300 303 302
318 318 318 317 317 316 316 316 316 316 315 313 312 311 311 310 309 308 307 307 307 307 309 309 310 311 311 311 310 309 307 306 304 304 304 304 304 304 302 300 300 299 299 299 299 298 298 297 297 297 296 296 295 294 294 293 292 292 292 292 292 292 291 291 291 291 291 291 291 291 291 292 291 292 292 292 292 292 293 294 295 297 301 302 301
317 316 316 317 316 316 316 316 316 314 313 312 312 311 311 310 309 308 308 308 307 307 308 309 309 309 309 309 309 307 305 303 302 303 304 303 304 304 302 300 299 299 299 298 298 297 297 296 296 295 295 294 294 293 293 292 292 292 292 291 292 291 291 291 291 291 291 291 291 291 291 291 291 291 292 292 292 292 293 294 294 296 298 300 299
315 315 315 315 315 315 315 314 314 313 312 312 312 311 311 310 309 308 308 308 308 307 307 307 307 307 307 307 306 305 304 304 303 304 303 303 303 303 302 300 299 299 298 297 296 296 295 295 294 294 294 293 293 292 292 292 292 291 291 291 291 291 291 291 291 291 291 291 291 291 291 291 291 291 292 292 292 292 292 293 294 295 295 296 296
312 313 312 312 312 313 313 312 312 312 312 312 311 311 310 310 309 308 308 307 307 307 306 306 305 305 305 304 303 303 303 303 303 302 302 301 301 301 300 299 298 297 296 295 295 294 294 294 293 293 293 292 292 292 292 292 291 291 291 290 290 290 291 291 290 291 291 291 291 291 291 291 291 291 291 292 292 292 292 293 293 293 293 293 293
Wind_Speed
9 8 7 7 6 4 5 7 7 6 5 4 3 2 3 3 4 4 4 4 3 1 1 4 6 6 6 7 7 7 6 7 7 7 6 6 5 4 5 5 5 6 5 4 3 4 5 6 6 5 5 5 4 4 4 5 5 4 3 3 3 2 2 2 3 3 3 3 3 4 4 4 4 5 5 6 7 7 8 8 8 9 9 9 10
9 8 8 7 6 4 4 7 8 6 5 4 3 3 2 3 4 4 4 4 1 1 1 4 6 5 5 7 6 5 6 7 8 8 7 6 5 5 5 5 5 5 5 3 3 3 4 4 5 6 6 5 5 5 5 6 6 5 5 4 2 2 1 2 3 3 2 3 3 3 3 3 3 3 4 4 6 7 7 7 7 8 8 9 9
10 9 8 8 6 5 5 6 8 7 5 4 4 3 3 3 3 4 4 3 1 1 2 5 6 4 4 6 6 3 3 5 7 7 7 6 6 6 6 6 5 5 5 5 4 4 4 3 4 5 5 5 5 6 6 7 6 5 5 6 5 3 2 2 3 3 3 3 2 2 3 3 2 3 3 3 4 5 6 6 6 7 9 9 9
11 10 10 9 7 6 4 5 7 7 6 5 5 4 3 3 3 3 3 2 1 1 2 4 4 4 4 5 5 4 3 3 3 5 6 7 6 6 7 6 5 5 6 5 5 6 5 4 2 3 4 5 6 6 6 6 6 6 6 8 7 6 5 4 4 4 4 4 3 3 3 3 2 2 3 3 3 4 4 5 5 7 9 9 8
12 11 11 10 9 7 4 5 6 8 9 8 6 5 4 3 3 3 3 2 2 0 2 3 4 4 4 4 5 4 4 3 3 3 4 5 6 6 6 7 6 5 5 5 5 6 7 5 3 3 3 4 5 6 6 6 6 6 7 9 9 7 7 7 6 5 5 4 4 4 3 3 3 3 2 3 3 3 4 4 5 7 8 7 8
13 13 12 10 8 7 5 6 7 9 10 10 8 6 5 4 4 4 4 3 2 3 4 6 6 4 4 4 4 4 4 3 3 4 4 5 6 7 6 7 7 6 5 4 5 5 5 5 4 4 4 3 4 5 5 6 6 6 7 10 11 9 8 9 8 7 6 5 5 5 4 4 3 3 3 3 3 2 3 3 4 5 5 7 8
14 13 11 9 7 6 7 7 8 9 9 9 8 7 6 6 6 7 5 4 3 6 5 6 6 5 5 6 5 5 5 4 3 3 5 5 6 8 7 7 8 8 7 5 5 5 5 5 5 5 5 5 5 5 4 6 7 7 7 9 11 10 9 9 9 8 7 6 6 5 5 5 4 4 4 3 3 3 3 3 3 3 4 6 6
15 13 11 9 7 6 6 6 7 7 7 8 8 7 7 8 9 9 9 7 4 9 8 7 7 5 4 6 5 6 6 5 4 3 3 4 7 9 8 8 9 9 8 7 6 7 7 7 7 7 7 7 7 6 5 5 7 7 6 9 10 10 10 8 8 8 8 8 7 7 6 6 6 6 5 5 4 4 4 3 3 3 3 4 4
12 11 10 9 7 6 5 5 6 6 6 7 7 6 7 9 9 9 10 10 6 8 8 7 7 5 5 5 6 6 5 4 3 2 2 3 5 6 6 6 10 12 12 10 9 9 8 9 9 9 10 9 9 9 8 7 7 8 7 8 8 9 10 9 8 9 9 9 9 9 8 7 7 7 6 6 5 5 5 4 4 4 4 3 4
9 8 9 8 6 5 5 6 5 4 4 5 7 7 7 10 10 9 9 8 7 8 9 6 3 4 6 5 4 3 2 1 1 1 2 4 4 5 4 7 9 10 11 10 10 10 10 10 11 11 12 12 12 12 11 10 9 9 9 9 8 8 9 10 10 10 9 9 10 10 9 9 9 8 8 8 7 6 6 5 5 5 4 4 4
7 7 7 6 4 4 5 6 6 5 4 6 9 9 9 11 10 9 8 6 5 8 9 6 4 5 5 4 3 2 1 0 1 1 3 4 4 5 5 8 10 8 7 9 9 10 10 10 11 12 13 14 15 15 14 13 11 10 10 10 10 9 8 9 11 11 10 9 10 10 10 10 11 11 10 9 9 7 7 6 6 5 5 5 5
5 6 6 5 4 4 5 7 7 6 6 7 10 10 12 13 10 9 10 9 8 9 9 10 9 7 4 3 2 2 1 0 1 2 3 3 3 5 4 5 8 7 7 8 9 9 10 11 12 12 13 14 15 16 16 15 13 12 12 11 11 11 10 10 11 11 10 9 10 11 12 11 10 11 10 10 10 9 8 8 7 6 6 5 5
4 5 5 5 5 5 4 5 6 5 5 6 9 11 12 11 9 9 9 9 9 8 9 9 8 6 4 4 2 1 1 1 2 2 3 2 2 3 4 4 5 2 3 4 5 6 8 10 10 11 13 14 14 15 17 17 16 15 14 14 13 13 13 13 12 13 12 10 9 11 13 13 11 11 10 10 11 11 10 9 8 8 6 6 6
5 5 5 6 5 4 4 5 4 3 4 6 8 10 9 7 8 7 7 7 6 6 7 6 5 5 5 4 2 0 1 1 1 2 3 1 0 0 2 3 4 1 1 2 3 5 6 7 8 9 11 14 14 13 14 16 16 16 15 16 16 15 15 15 14 15 15 13 11 10 12 14 13 12 12 10 11 11 11 10 9 9 8 6 6
9 8 8 8 6 5 5 6 5 4 6 7 7 7 7 6 7 7 6 5 4 4 6 6 5 7 5 2 1 1 1 1 1 2 3 3 4 3 2 1 2 2 2 2 3 5 6 6 7 8 10 11 11 9 9 9 11 12 13 14 16 16 17 16 16 16 16 15 14 12 12 13 13 13 13 12 11 12 12 12 10 9 8 8 7
10 9 8 8 7 6 6 6 5 3 3 4 4 5 5 5 6 6 5 5 5 4 5 4 4 6 4 2 2 1 1 1 2 3 4 7 7 7 6 5 4 3 3 4 4 4 5 5 6 7 7 8 7 6 7 8 9 11 12 12 13 14 15 16 16 17 16 15 15 15 14 14 14 13 13 13 13 13 13 12 10 9 9 9 8
6 7 8 8 7 6 6 6 5 3 2 2 3 4 5 5 5 5 5 5 6 5 4 3 2 5 5 3 2 1 1 1 1 4 6 9 11 10 10 11 10 8 6 5 3 3 4 5 7 7 7 6 7 8 9 10 10 12 14 13 12 12 12 13 15 16 17 16 16 17 16 16 16 16 15 14 14 15 14 14 12 11 11 11 10
4 5 6 8 8 7 6 6 5 3 3 4 5 5 5 5 5 5 5 5 5 5 6 4 3 4 5 5 3 2 2 2 1 2 5 9 11 12 13 13 11 9 8 8 7 6 4 3 3 5 5 5 6 6 7 8 9 10 12 12 11 11 11 11 12 12 14 14 14 16 16 17 18 18 18 18 17 16 16 15 15 14 14 13 12
5 5 6 7 7 6 5 5 5 4 5 6 6 5 5 5 6 6 7 6 5 5 8 8 6 5 5 7 6 5 4 3 2 1 2 5 8 11 15 15 12 11 13 14 13 12 11 9 6 5 4 3 3 4 4 5 7 7 9 10 10 10 10 10 10 10 10 11 12 14 15 17 20 21 21 21 20 18 17 17 17 17 16 15 15
5 5 5 7 6 4 2 3 5 5 6 7 6 6 6 6 6 7 7 6 4 5 8 9 8 7 7 7 8 6 6 6 5 4 3 1 3 7 12 17 19 20 22 23 23 21 19 18 16 13 11 9 7 5 5 5 6 6 7 7 8 10 10 9 10 9 8 8 9 12 14 15 18 21 22 22 21 20 20 20 20 19 19 17 17
5 5 6 6 6 4 3 4 6 7 8 8 8 8 6 5 6 6 6 6 5 4 7 9 10 10 11 11 11 11 12 11 10 9 6 3 1 2 6 13 19 22 25 27 28 27 25 23 21 20 19 18 16 14 12 9 7 7 6 6 7 9 9 9 9 9 8 6 5 5 8 10 11 15 19 21 21 19 20 23 22 21 21 20 20
5 6 7 7 6 6 5 7 8 9 10 10 9 8 7 7 7 7 7 8 8 7 9 11 11 11 12 12 12 12 11 10 10 10 9 6 4 0 2 5 8 13 18 23 26 28 27 25 23 22 21 20 20 19 18 16 14 12 9 6 6 7 8 9 10 11 11 9 7 6 4 5 6 9 13 17 19 18 19 22 22 22 22 23 23
8 9 9 9 7 7 7 8 8 9 9 9 8 8 8 9 10 10 10 11 12 13 13 14 13 13 12 11 11 10 9 9 10 10 8 6 4 1 2 3 4 8 12 16 21 26 28 27 25 23 22 20 19 19 19 19 17 16 14 10 8 9 9 10 10 12 13 12 9 7 7 5 3 4 7 11 16 16 16 19 22 22 21 21 23
11 11 10 9 8 8 8 8 8 8 9 9 8 8 9 11 12 13 14 14 15 15 16 16 14 14 13 11 11 11 11 11 10 10 10 8 6 3 3 4 4 6 9 11 16 22 25 27 26 24 23 21 19 18 17 17 17 16 16 15 13 13 12 11 11 12 13 12 10 9 8 7 5 2 1 4 9 11 13 16 20 21 21 20 22
12 11 10 9 8 9 9 9 8 8 8 8 9 10 11 11 12 12 13 14 14 14 15 15 13 13 13 12 11 11 12 11 9 10 10 10 10 6 5 6 5 6 9 11 14 17 21 25 26 24 24 22 20 19 18 17 16 15 14 15 15 15 15 14 13 13 13 12 11 9 8 7 6 6 5 4 2 4 6 9 12 14 15 14 16
12 10 9 8 8 9 10 9 9 8 8 9 9 10 10 9 10 10 11 12 12 12 13 13 12 12 11 12 12 12 12 11 10 11 11 12 12 8 5 6 7 8 9 10 16 17 16 20 24 24 23 22 21 20 20 19 17 15 13 13 14 14 14 13 12 13 13 13 12 10 9 7 7 6 6 5 3 1 1 4 6 8 10 10 12
11 10 9 9 10 11 11 11 11 11 11 11 11 11 10 9 10 11 11 11 11 12 12 12 13 13 12 12 13 13 13 13 13 14 14 14 15 12 8 6 5 7 7 8 14 18 16 16 21 24 22 22 21 21 21 20 19 16 14 14 14 14 13 12 11 11 12 12 11 10 10 8 7 6 5 5 4 4 4 5 6 7 9 10 11
12 11 10 10 11 12 12 13 13 13 13 13 12 12 11 11 12 12 12 12 12 13 13 13 13 13 13 13 14 15 15 15 15 15 15 15 15 15 14 10 6 3 4 5 7 12 15 16 18 21 21 20 20 20 19 20 21 18 16 16 16 16 14 13 12 12 11 11 10 10 9 8 7 6 4 4 4 4 5 5 6 6 7 8 9
13 12 11 11 11 11 12 12 13 13 12 12 12 12 12 12 13 14 14 13 13 14 13 13 13 13 13 13 14 15 16 15 15 15 14 14 13 13 14 14 12 6 1 3 3 5 12 15 16 19 19 19 19 18 17 19 19 19 18 18 19 19 17 15 15 14 13 12 11 10 9 8 8 7 6 5 5 5 6 7 7 7 7 7 8
14 13 13 12 12 11 10 11 11 11 11 11 12 11 10 11 13 14 14 14 15 15 14 13 13 13 13 13 13 14 15 14 13 12 11 11 10 10 11 11 13 10 5 3 2 4 9 13 15 17 18 18 18 17 17 17 17 17 17 18 19 19 18 17 18 17 17 15 14 13 12 11 11 10 9 8 6 6 6 8 9 9 9 9 9
13 14 13 12 12 11 10 9 9 9 9 9 10 9 9 10 11 12 12 12 13 15 14 13 13 12 13 13 12 12 12 10 10 9 9 9 9 9 10 9 11 11 9 6 3 4 8 10 13 15 16 16 17 17 17 16 16 15 15 15 16 16 16 17 18 18 18 18 17 16 15 14 14 13 13 12 11 9 8 8 8 9 10 10 11
13 13 13 12 12 11 10 9 9 8 8 8 8 7 7 8 8 9 10 9 10 11 12 11 11 11 12 13 12 11 10 8 7 7 7 8 9 9 9 9 10 10 10 9 5 4 6 9 11 14 14 14 16 18 18 17 16 15 15 14 14 14 15 15 15 15 16 16 16 16 16 15 15 14 14 14 13 13 11 10 10 10 10 10 11
14 13 14 13 12 12 11 10 10 10 9 8 8 7 6 6 6 6 7 6 6 7 8 9 9 10 10 10 11 10 9 8 7 6 6 6 7 8 8 8 9 9 9 9 8 5 6 8 11 13 13 13 16 19 18 18 17 16 15 15 14 14 15 15 13 13 13 13 14 14 14 15 15 15 15 14 14 14 14 13 12 12 12 11 11
15 15 15 14 13 12 13 12 11 11 11 10 8 8 7 6 5 5 5 5 4 4 5 6 6 7 7 7 8 8 8 7 6 5 4 4 4 6 6 6 7 8 8 9 9 7 7 8 10 13 13 14 17 19 19 19 18 18 17 17 17 17 17 16 14 13 13 13 13 13 13 14 14 15 15 15 14 14 14 14 13 13 13 13 12
17 17 16 15 15 13 13 14 13 12 11 11 10 9 8 7 6 6 5 5 5 4 4 4 5 5 5 5 5 6 6 5 4 3 3 3 2 3 4 4 5 7 7 9 9 9 9 9 10 13 14 15 17 19 19 19 18 19 19 20 20 20 20 20 18 16 15 15 15 15 15 15 15 14 14 14 15 15 15 15 14 14 14 14 14
20 20 19 17 17 16 14 14 14 13 12 11 10 11 11 10 9 8 7 6 6 6 5 5 5 6 6 5 5 5 5 4 4 3 2 2 1 1 2 3 4 5 6 8 10 10 10 9 10 12 14 14 16 18 19 19 18 19 21 21 22 23 23 23 22 20 18 17 17 17 17 17 17 16 15 14 14 14 15 15 15 15 16 16 16
20 20 20 19 18 16 15 14 14 13 12 11 11 12 14 14 13 11 10 9 8 8 8 8 7 8 8 8 7 7 7 6 6 6 5 4 3 2 1 1 2 4 5 7 9 10 11 10 9 10 13 14 15 17 19 20 20 21 23 22 23 25 26 26 25 21 19 20 20 21 21 20 20 19 18 16 15 14 14 15 15 15 16 17 17
19 17 16 16 14 12 11 12 12 11 11 11 12 13 14 16 16 14 13 12 11 11 10 11 10 10 11 11 10 10 10 9 9 8 8 7 6 4 3 2 1 1 3 5 8 9 10 9 8 10 12 14 15 17 18 20 21 23 26 25 25 27 28 29 28 22 19 22 25 26 27 26 24 22 20 18 16 16 15 15 15 15 15 16 18
20 18 16 14 13 9 7 8 10 11 13 14 15 14 14 17 18 18 16 15 14 13 13 13 13 13 13 13 14 14 14 12 11 11 10 9 8 6 5 4 3 1 1 3 6 7 8 7 8 10 11 13 14 15 16 18 19 22 26 27 29 30 31 31 29 23 21 24 28 31 31 30 28 26 23 20 17 17 17 16 17 16 15 16 17
19 19 17 13 13 10 8 7 10 15 18 17 17 17 17 18 18 18 17 17 15 15 16 16 16 16 16 16 17 17 18 17 15 14 13 12 10 9 8 6 4 3 1 2 4 6 6 6 7 9 10 12 14 15 16 18 19 20 22 23 25 29 31 32 29 23 23 27 31 35 35 32 31 28 26 22 18 18 20 20 19 18 17 16 16
20 19 14 9 12 12 8 8 12 17 20 19 17 16 16 16 15 14 15 15 16 16 16 17 17 18 19 19 20 21 21 21 19 18 16 14 13 12 11 9 7 5 3 0 4 5 5 5 5 7 10 12 13 14 16 17 16 17 17 18 20 23 28 31 29 23 24 29 35 39 36 33 31 29 27 23 19 20 22 22 20 18 17 16 16
23 21 16 15 18 17 13 13 17 21 23 23 19 16 14 13 12 11 11 12 13 14 14 15 17 18 19 20 21 22 23 23 23 21 20 17 15 13 11 9 8 7 5 2 3 4 4 4 4 6 9 10 10 11 12 13 13 14 16 17 19 21 25 28 28 27 27 31 37 40 37 33 29 28 26 23 21 22 22 19 18 17 16 15 14
24 22 21 24 26 24 21 22 26 27 27 25 20 16 14 11 8 7 7 8 9 10 12 13 15 16 17 17 19 20 22 23 24 24 23 20 17 15 12 9 9 8 5 3 2 3 4 4 4 5 7 8 9 8 9 11 12 13 14 16 17 19 21 20 20 25 29 31 32 34 35 32 27 26 27 24 22 20 17 15 15 16 15 14 12
23 21 22 25 26 26 27 27 27 27 25 20 16 12 8 4 4 4 5 6 7 9 11 12 14 15 16 16 17 17 19 21 23 23 23 21 18 16 13 10 9 7 6 4 4 4 5 6 6 6 6 7 8 8 9 11 12 13 15 16 17 18 18 16 16 22 27 27 25 27 31 30 25 25 25 22 19 16 13 13 14 15 15 13 11
21 19 21 24 25 25 26 26 25 23 18 14 10 6 3 2 5 6 5 5 5 5 6 8 10 12 13 14 14 15 16 17 19 21 22 21 19 15 12 10 9 8 6 5 5 5 6 7 7 6 7 7 7 8 9 10 12 14 16 18 18 18 18 17 18 22 24 22 19 21 26 28 24 21 21 19 16 15 14 12 12 14 15 13 11
18 17 19 21 22 23 22 22 21 19 15 11 8 5 0 5 6 6 5 5 6 6 6 6 6 6 8 9 10 11 12 13 15 16 19 21 19 15 12 11 10 8 7 6 6 6 7 8 8 7 7 7 7 8 8 9 11 13 15 17 18 18 19 19 19 21 21 18 16 16 19 22 21 18 18 20 19 17 17 15 13 13 13 10 9
18 17 18 19 19 19 18 17 16 15 12 10 7 3 2 4 6 7 8 8 9 9 10 10 9 8 7 6 7 8 9 10 11 12 17 19 16 12 11 10 10 9 9 8 8 8 8 9 8 8 7 7 6 7 9 11 12 13 14 15 16 17 18 19 20 21 19 17 17 14 13 16 19 18 19 22 22 20 19 16 13 11 8 6 7
18 17 17 17 17 15 14 13 12 11 11 9 5 2 1 3 5 6 9 10 11 11 11 10 10 10 8 6 5 5 6 7 9 12 14 14 12 10 10 10 10 10 9 7 7 6 6 6 6 6 6 6 8 9 11 12 13 14 14 15 16 16 17 18 19 19 17 18 19 14 11 14 19 19 20 22 22 20 17 12 8 7 6 5 6
17 16 15 15 14 12 11 12 12 12 10 8 6 4 2 1 3 5 7 8 9 10 10 10 9 9 7 5 3 2 3 6 10 11 9 9 9 9 10 10 9 8 6 4 4 4 4 4 4 4 6 7 9 10 11 11 12 13 14 15 16 17 16 16 15 16 19 21 19 12 11 15 18 20 21 21 19 18 16 11 7 7 7 8 9
14 13 13 13 13 13 13 13 13 11 10 9 7 5 3 2 3 4 5 6 6 6 7 7 7 6 5 3 2 1 2 5 7 7 8 9 9 9 9 8 7 5 4 3 3 3 4 4 5 6 7 9 9 10 11 11 12 12 13 15 16 17 17 16 15 18 22 20 15 11 12 16 19 21 20 19 18 15 12 8 8 9 10 12 14
17 16 15 15 15 15 14 13 13 12 11 9 7 5 3 3 3 4 4 4 4 3 3 3 3 3 3 3 4 3 2 3 4 4 5 5 5 5 5 5 4 4 3 3 3 4 5 6 7 8 9 9 10 11 11 12 12 12 13 14 15 16 18 18 18 17 14 10 11 14 17 19 19 19 17 15 14 11 7 7 12 15 16 17 18
Wind_Direction
250 254 255 254 251 255 241 227 225 218 215 219 212 196 183 183 185 182 178 183 186 187 196 177 176 171 168 180 183 181 189 199 205 217 237 254 254 228 194 178 172 174 184 204 215 215 212 216 223 227 225 215 203 206 233 254 270 268 237 193 174 173 175 172 158 150 137 125 126 124 122 120 114 114 114 111 111 111 109 106 105 105 104 106 105
249 260 260 254 252 265 255 228 222 220 220 224 216 193 175 174 177 177 178 185 216 332 165 166 169 167 175 187 189 189 198 210 216 222 238 256 260 243 210 192 191 191 196 214 218 216 226 226 228 235 237 232 221 216 229 253 275 272 250 240 220 196 196 198 189 182 179 163 153 146 139 137 129 125 124 117 114 116 117 114 111 113 113 111 108
251 260 261 259 261 267 262 236 226 223 226 222 209 193 169 163 172 175 181 193 272 15 109 148 161 152 154 177 187 188 189 214 230 230 238 258 263 248 231 212 206 210 216 233 233 220 243 253 231 237 244 247 242 232 227 238 261 263 254 265 268 256 253 249 229 215 204 194 189 178 161 155 158 152 145 131 122 122 125 123 120 123 123 116 112
252 256 259 263 264 264 272 256 234 226 227 217 205 200 179 170 179 187 196 221 265 32 98 137 150 135 134 160 174 167 153 183 230 229 234 252 257 247 241 236 227 226 229 241 237 218 238 266 255 246 255 258 252 249 243 236 241 244 253 266 266 268 277 273 262 247 226 221 217 195 186 183 185 182 165 147 139 139 137 129 124 129 127 120 119
250 248 252 258 258 259 269 244 216 211 213 205 203 205 196 195 206 220 223 246 275 214 132 149 144 134 143 154 159 159 159 170 207 230 242 245 250 258 253 253 252 245 244 245 237 217 223 245 255 260 276 274 259 259 259 249 246 243 252 264 262 267 285 283 274 266 253 245 231 210 211 214 206 206 190 170 159 151 143 133 128 134 131 126 128
248 244 245 248 245 247 250 227 204 204 206 199 202 204 209 228 233 240 235 243 237 150 120 114 124 140 148 149 151 154 164 175 202 237 253 243 248 261 257 263 266 255 253 253 250 238 229 237 243 254 272 278 269 269 263 255 257 251 249 262 264 264 282 291 279 268 267 261 245 228 224 226 229 228 215 194 183 176 159 151 143 138 136 139 136
245 245 245 242 235 236 238 224 207 210 211 201 200 205 217 233 237 237 226 217 167 145 139 120 135 165 149 141 145 140 151 171 197 235 250 245 243 249 251 264 265 254 255 263 271 270 264 260 255 259 267 273 276 275 267 251 252 255 249 259 266 265 276 293 286 271 265 260 256 249 237 228 235 239 231 223 207 198 190 175 164 155 151 151 144
241 243 246 243 235 240 243 225 205 202 209 205 199 207 223 226 229 231 222 220 166 141 165 175 171 180 149 140 149 147 151 163 174 204 235 238 236 250 260 255 246 251 257 260 274 280 279 280 275 273 271 274 280 277 275 255 242 248 247 252 264 267 269 281 286 277 264 255 255 256 250 237 237 245 242 237 223 212 211 193 186 184 174 169 165
232 235 237 237 234 247 245 216 204 197 207 217 208 208 222 222 223 226 224 229 207 155 174 202 188 185 178 159 149 142 144 156 174 215 253 259 245 257 278 263 251 258 263 262 269 276 278 280 280 281 278 276 278 275 274 267 250 247 243 242 253 264 267 268 273 279 269 255 255 260 260 250 243 245 247 248 241 230 225 207 197 199 194 195 188
211 215 218 222 230 246 230 197 193 196 208 231 230 218 212 216 217 221 225 233 225 188 191 223 209 173 177 179 167 141 136 197 242 268 293 299 275 265 294 311 297 273 262 263 263 267 272 277 278 278 278 275 275 274 271 272 268 259 253 245 242 254 268 267 263 273 274 256 254 265 265 256 252 249 245 252 255 243 231 221 213 210 207 212 209
190 200 207 211 213 215 204 186 180 192 211 231 238 228 207 207 202 193 193 195 205 188 181 193 187 163 165 188 212 166 126 264 318 334 318 311 292 276 281 306 313 300 276 269 266 273 281 281 277 271 271 269 268 270 268 268 268 267 267 259 250 251 267 273 263 264 269 256 251 263 267 263 262 261 250 248 255 247 233 232 226 218 217 217 214
185 205 205 192 174 166 179 191 196 207 222 227 227 218 206 204 197 181 171 165 167 165 163 165 164 161 165 193 205 171 131 19 343 351 349 345 326 303 288 284 295 305 302 285 280 291 289 281 279 276 277 275 270 272 274 273 272 271 275 276 268 258 261 267 264 263 265 257 250 252 262 270 271 268 256 244 247 246 238 239 237 228 227 227 221
167 202 198 179 164 156 171 196 215 229 236 226 213 206 202 199 197 191 181 171 162 160 166 165 162 157 153 165 168 210 298 353 338 2 23 7 330 304 288 266 265 295 335 311 308 316 301 290 293 290 288 288 282 280 282 280 279 278 279 282 282 276 268 261 259 264 263 257 252 245 251 264 270 270 266 249 245 248 247 243 239 236 236 239 237
111 127 138 141 138 136 152 169 185 205 208 207 204 207 209 208 207 200 190 182 172 175 176 173 175 157 138 141 131 313 284 350 321 13 34 40 115 328 277 261 253 244 41 11 349 337 324 319 317 307 300 297 287 280 281 283 283 284 283 281 281 281 278 270 261 262 260 254 254 248 247 256 262 266 270 261 245 246 252 249 243 243 243 246 249
93 92 98 103 100 95 112 134 135 145 179 192 200 212 221 224 221 221 222 203 187 188 184 188 175 137 112 102 112 99 107 99 102 66 50 70 80 68 47 331 281 275 302 327 332 330 327 324 316 312 313 305 290 278 287 299 300 298 293 286 284 284 284 283 276 271 270 264 257 249 244 252 259 261 264 262 250 243 249 253 251 248 248 250 250
99 96 95 94 92 86 91 105 105 112 170 191 198 209 212 207 204 213 222 197 182 188 192 203 176 138 118 79 65 61 76 3 37 60 68 76 71 59 54 49 43 23 346 338 323 306 302 303 301 306 317 312 300 299 309 318 317 313 311 306 304 303 297 296 293 288 289 285 273 261 250 250 258 262 261 259 253 248 248 254 256 256 257 258 254
99 105 111 109 103 98 95 97 96 99 115 135 154 166 171 168 172 183 182 177 187 192 191 207 193 174 165 127 82 49 210 268 33 61 67 74 69 56 54 53 48 42 28 19 5 321 297 293 294 296 306 311 310 315 317 319 318 317 321 322 323 325 316 307 302 297 297 294 284 275 264 256 256 261 263 261 257 253 251 253 257 262 260 259 257
93 107 121 123 116 112 110 108 103 101 106 125 145 148 150 156 162 171 175 186 199 190 183 181 159 156 155 144 146 162 166 159 126 87 64 72 71 60 54 50 42 34 31 32 33 27 12 349 319 309 308 310 315 320 323 328 328 326 331 334 335 338 336 326 318 308 303 299 287 278 271 262 256 254 256 259 259 255 253 254 257 262 261 256 252
106 111 123 131 126 117 115 119 116 109 115 126 138 143 150 159 166 178 184 191 196 179 169 163 150 143 134 125 124 133 146 141 127 133 89 69 64 56 53 52 48 46 52 54 55 55 55 57 55 42 23 356 333 325 327 334 336 340 351 352 344 342 342 338 334 329 320 309 293 283 279 272 263 253 247 249 254 254 253 254 256 260 262 257 248
113 115 128 135 130 120 120 140 136 125 122 124 128 136 145 157 167 178 182 178 174 169 163 159 157 155 140 120 115 115 113 110 100 104 123 100 36 38 53 65 69 68 70 69 66 66 66 66 66 65 62 55 45 23 4 346 331 335 350 353 347 349 348 338 333 336 337 322 301 291 287 285 274 260 250 246 251 256 256 256 255 257 260 257 250
126 124 131 136 137 139 137 143 142 134 129 128 127 129 131 141 153 164 173 165 156 155 151 149 149 143 135 125 117 107 98 94 91 89 91 98 81 352 45 69 73 70 69 68 65 64 65 66 66 65 64 60 57 51 43 34 20 9 360 349 349 359 2 356 357 4 7 4 352 323 298 294 281 262 253 250 252 255 254 253 252 253 255 254 252
139 137 139 141 143 146 135 132 136 132 130 128 124 125 124 124 127 131 143 146 143 142 135 134 137 133 132 129 119 111 102 91 83 82 84 89 104 161 33 65 74 67 62 61 61 60 59 61 62 60 59 57 54 53 49 45 44 41 34 19 9 17 23 24 29 32 29 32 45 47 10 319 287 254 245 251 256 254 249 248 249 249 249 251 254
144 142 142 140 137 138 136 134 135 133 134 132 128 127 122 118 116 116 122 127 127 129 129 126 126 124 123 121 114 107 102 93 84 83 89 94 105 114 39 67 84 66 62 62 60 58 56 55 56 54 52 51 49 47 46 43 43 40 36 34 31 31 35 34 34 33 31 32 38 45 44 32 347 250 237 251 259 256 249 247 248 248 248 250 255
146 144 141 141 139 142 145 143 141 140 139 137 130 125 121 117 114 111 112 116 118 119 122 123 124 122 115 107 101 95 90 89 86 83 87 93 102 101 52 70 82 61 65 69 61 59 55 50 50 49 46 46 45 42 41 39 38 35 29 25 24 26 29 29 26 27 28 27 28 34 40 46 55 82 176 241 253 256 257 254 250 252 256 256 256
151 148 145 147 151 152 154 153 153 153 146 139 129 123 123 119 114 110 109 112 116 117 119 121 119 115 110 103 98 94 88 84 81 81 84 84 86 91 76 75 81 67 66 67 61 61 56 46 44 44 43 44 43 41 40 38 38 36 30 27 28 26 25 25 24 24 25 22 22 29 37 43 53 62 72 88 174 237 257 261 259 263 270 271 269
157 155 152 155 161 162 164 164 162 160 152 144 138 133 133 128 121 117 115 116 118 118 118 118 112 106 106 104 100 97 94 90 85 82 81 75 69 76 99 88 73 67 68 64 58 55 51 44 41 40 41 42 42 41 40 40 41 39 37 38 40 37 33 33 33 33 32 28 22 21 26 33 38 41 46 53 50 15 303 287 286 287 290 293 293
169 164 164 162 160 159 159 157 152 149 145 141 142 145 144 137 127 119 117 119 117 112 110 108 105 103 103 104 102 101 99 97 92 85 80 74 66 65 81 99 77 55 52 58 57 49 42 40 39 38 39 39 40 41 42 43 43 42 41 42 42 40 37 36 38 39 40 39 34 29 25 23 22 20 18 19 14 356 337 320 307 301 298 299 301
182 176 173 166 158 155 152 148 145 143 141 138 138 142 143 136 130 123 119 119 114 110 110 107 102 100 102 103 103 104 104 100 95 89 83 79 73 65 64 75 87 70 30 41 51 43 37 34 35 36 36 36 36 38 42 45 45 44 45 45 43 40 35 33 34 35 39 43 45 43 39 33 26 18 3 347 342 338 330 318 304 294 291 291 293
189 182 176 171 163 159 153 148 148 146 144 143 140 140 141 137 132 127 124 122 117 114 115 113 106 102 104 105 104 105 107 105 99 95 89 83 80 74 67 67 75 90 94 41 37 35 34 32 30 30 31 31 33 34 37 42 44 44 47 49 48 45 42 41 41 40 42 45 48 48 46 41 36 29 18 358 333 318 313 307 297 286 282 284 284
193 188 182 179 173 169 165 156 154 152 150 149 147 143 140 137 133 129 128 126 122 119 119 118 114 111 110 109 110 111 111 110 103 98 93 88 84 83 79 71 70 80 104 101 55 34 34 34 31 27 26 27 29 31 35 37 38 39 43 47 48 46 46 48 50 50 50 51 52 53 52 51 49 45 40 32 16 351 330 320 311 299 292 290 291
200 196 191 188 183 181 179 172 167 163 158 156 154 151 144 140 137 134 133 133 128 125 124 123 121 120 119 117 119 120 118 115 107 98 95 94 93 90 88 82 73 76 89 100 84 36 38 39 35 30 29 29 28 30 35 36 35 33 34 38 41 41 43 46 49 51 53 54 55 55 55 55 54 52 50 46 39 29 14 358 344 328 312 298 291
209 206 200 199 196 194 193 190 190 184 176 170 166 164 157 149 146 140 140 141 136 130 128 128 128 128 125 123 124 125 124 121 110 101 99 98 97 97 96 90 81 76 76 82 90 81 62 47 37 35 35 33 30 31 34 36 35 33 31 31 31 32 34 37 40 44 47 47 47 47 46 45 44 42 40 38 35 30 22 16 9 360 347 326 305
218 214 209 206 206 207 208 206 204 201 196 190 184 182 177 167 161 154 151 151 145 138 134 132 134 137 134 129 128 126 123 120 115 108 105 104 100 99 98 89 81 74 61 62 75 86 76 54 41 41 40 36 34 32 30 32 33 32 31 31 29 28 29 27 26 28 30 29 28 27 26 25 25 24 24 22 21 19 15 11 8 6 2 353 338
225 222 216 211 209 213 217 216 215 211 209 206 203 203 203 200 192 182 176 171 168 164 156 149 146 149 152 143 136 134 131 125 119 115 110 109 106 101 97 82 72 68 52 50 59 63 60 51 42 42 40 36 34 33 30 30 31 29 29 31 31 30 29 25 20 16 14 10 8 5 4 3 2 2 3 3 2 3 1 360 358 359 359 357 353
225 224 220 214 214 218 220 222 223 220 217 218 222 225 226 228 225 217 214 209 209 212 203 190 178 174 178 168 152 149 150 147 137 134 132 123 116 101 92 74 61 61 49 40 46 51 51 45 38 37 37 34 33 32 30 30 30 28 26 28 28 27 26 23 18 14 11 8 5 2 359 355 352 348 346 346 346 346 346 345 343 344 346 348 349
218 219 220 218 219 220 221 224 225 224 226 230 238 245 248 249 248 243 240 239 240 242 241 236 225 218 217 210 196 182 175 185 191 189 194 183 169 118 94 78 59 57 45 34 37 42 43 44 40 34 33 34 32 28 24 24 25 24 22 21 19 18 18 17 15 12 10 9 7 5 4 1 357 352 346 341 338 336 335 334 331 331 331 335 339
216 216 216 217 221 225 226 229 231 233 235 235 238 247 256 259 258 257 257 255 258 260 258 255 252 248 248 243 232 218 207 210 216 217 220 217 211 197 148 109 69 54 40 31 30 28 29 36 42 34 27 28 27 23 18 16 16 15 13 14 13 10 8 9 11 11 8 5 3 1 360 359 358 356 352 346 341 337 334 331 326 323 321 323 326
218 212 208 210 215 223 233 235 240 251 250 242 242 245 254 263 263 261 262 262 265 267 266 264 263 263 265 263 256 243 234 231 229 226 224 220 216 210 196 174 133 66 37 33 24 18 20 26 30 26 21 19 18 17 14 11 10 8 6 5 5 4 2 2 5 6 3 359 357 355 354 354 354 355 355 351 346 339 336 334 329 323 318 316 318
214 207 204 206 205 217 259 256 251 269 268 259 261 262 267 271 266 261 261 262 264 267 269 271 269 269 271 271 268 260 254 251 246 239 233 227 221 214 207 198 186 178 47 38 24 15 18 23 18 14 14 12 10 11 11 9 8 6 4 1 356 355 356 357 358 359 356 352 350 349 349 349 350 351 353 354 349 339 336 336 333 328 321 314 313
207 200 199 205 209 225 271 272 257 267 269 264 267 275 283 281 269 262 263 264 267 269 269 270 270 270 270 270 270 267 262 259 254 249 243 237 228 217 211 210 208 208 172 47 22 12 11 14 9 1 1 2 1 1 3 5 7 6 4 359 352 349 349 350 352 353 348 346 344 343 344 345 345 346 348 351 348 338 335 337 336 330 324 317 314
194 183 180 198 209 215 251 280 261 256 259 264 272 283 290 285 273 271 271 271 272 272 270 270 269 269 268 268 269 270 267 263 257 252 247 242 238 230 220 215 217 220 209 248 1 358 354 354 353 346 345 349 354 355 354 359 2 358 354 352 349 346 343 343 347 348 344 341 339 338 340 343 343 342 346 350 346 336 335 338 338 333 328 323 320
193 190 203 224 223 223 247 261 244 237 247 261 274 287 289 282 278 278 275 273 271 269 268 268 265 264 263 263 264 267 269 264 257 252 246 240 238 237 232 226 226 226 216 223 336 334 323 323 327 330 331 335 343 348 345 346 347 343 343 346 345 343 342 342 342 340 339 339 337 335 336 339 341 340 343 346 340 335 337 341 341 337 334 331 329
198 207 220 223 223 226 229 225 225 235 248 259 273 283 279 274 279 280 277 277 273 271 271 270 269 268 265 264 264 266 269 267 259 251 243 237 233 229 226 229 232 231 228 240 286 289 278 279 289 300 307 312 322 329 328 329 332 335 339 341 340 340 343 343 334 329 333 337 336 332 330 335 340 339 339 343 342 340 345 349 347 343 338 336 339
209 219 219 212 214 221 219 218 228 240 248 258 270 272 261 268 309 312 301 287 275 272 273 273 276 277 276 274 272 268 268 269 264 253 241 232 226 220 219 223 224 226 236 253 262 258 251 253 265 275 280 289 300 307 311 319 325 329 332 333 335 336 335 331 318 316 326 335 335 330 327 330 338 339 338 346 352 352 352 349 347 347 344 342 347
220 222 215 210 213 220 223 226 232 237 244 256 255 234 210 356 351 341 328 313 302 295 289 285 284 285 286 285 282 278 274 271 267 257 240 223 213 209 211 213 213 219 233 251 264 266 257 256 265 269 267 273 284 292 302 311 319 324 325 326 329 328 325 322 315 315 325 334 337 330 323 325 336 341 341 347 352 350 345 338 339 346 348 347 352
214 210 209 211 216 222 227 230 230 234 241 238 213 185 53 1 9 12 8 8 14 14 7 355 340 327 316 306 298 294 287 278 271 254 228 210 202 201 205 209 216 226 235 246 257 257 254 256 263 264 263 270 277 287 299 308 316 321 322 322 324 323 320 317 314 316 323 332 339 331 315 320 336 343 338 337 336 334 330 324 321 331 340 347 357
209 207 209 215 222 229 234 235 235 234 225 204 186 175 355 7 25 33 32 32 29 25 22 19 13 7 358 340 321 308 294 280 263 230 205 199 200 204 208 215 225 231 235 242 247 249 251 255 261 265 268 277 285 295 307 315 320 321 321 320 321 320 317 313 313 316 320 328 338 329 301 312 333 335 330 333 332 328 328 326 319 317 322 335 349
207 212 216 223 229 232 233 231 224 212 196 186 188 207 332 9 20 31 33 30 27 23 21 19 16 12 8 357 338 317 289 252 210 192 193 199 206 213 218 223 230 233 235 240 243 249 254 255 261 268 273 287 300 308 315 318 321 322 320 319 320 318 315 311 312 314 318 326 333 325 294 306 328 327 323 330 332 329 332 336 328 316 304 299 311
213 218 218 218 218 215 210 204 195 188 187 192 201 204 195 20 29 38 35 29 27 23 18 16 15 13 11 4 356 329 254 207 188 188 200 206 211 224 229 227 228 230 232 237 245 253 259 266 277 287 295 303 307 312 317 320 322 323 320 317 319 318 312 308 307 307 311 318 325 322 295 303 321 323 319 323 326 325 326 326 316 312 307 298 300
192 191 189 185 184 184 183 181 181 187 196 200 197 190 168 110 62 52 46 39 33 26 20 17 16 17 24 33 47 76 202 196 195 206 213 214 223 237 236 226 221 219 216 227 250 266 279 292 301 307 309 310 310 312 316 319 320 320 317 314 315 314 308 303 299 302 307 311 318 320 303 303 316 321 318 319 318 315 317 318 310 307 304 302 303
160 163 167 168 168 171 176 180 186 194 199 196 187 178 157 120 84 66 58 46 38 36 29 25 33 47 62 82 92 105 152 169 177 188 193 204 219 222 218 212 202 196 207 234 269 289 297 302 308 312 312 312 313 313 313 313 313 312 310 308 309 310 308 305 302 303 304 303 311 316 307 303 310 315 316 318 316 311 308 305 305 307 305 303 304